This is the latest recevied weather packets stored in our database for station/object N5TDX. If no packets are shown the sender has not sent any weather packets the latest 10 day(s).
| Time | Temp. | Humidity | Pressure | Rain* | Wind** | Luminosity | Snow |
|---|---|---|---|---|---|---|---|
| 1788204868 | 37.22° C | 31% | 1012.7 hPa | 0 mm | - | - | - |
| 1788204552 | 37.78° C | 30% | 1012.8 hPa | 0 mm | - | - | - |
| 1788204247 | 36.67° C | 32% | 1012.6 hPa | 0 mm | - | - | - |
| 1788203942 | 36.67° C | 32% | 1012.9 hPa | 0 mm | - | - | - |
| 1788203638 | 37.22° C | 31% | 1012.7 hPa | 0 mm | - | - | - |
| 1788203334 | 37.22° C | 31% | 1012.9 hPa | 0 mm | - | - | - |
| 1788203033 | 37.78° C | 31% | 1012.8 hPa | 0 mm | - | - | - |
| 1788202733 | 38.89° C | 29% | 1012.9 hPa | 0 mm | - | - | - |
| 1788202429 | 38.33° C | 30% | 1012.8 hPa | 0 mm | - | - | - |
| 1788202128 | 38.33° C | 30% | 1013.1 hPa | 0 mm | - | - | - |
| 1788201824 | 37.22° C | 31% | 1013.1 hPa | 0 mm | - | - | - |
| 1788201519 | 36.67° C | 31% | 1013 hPa | 0 mm | - | - | - |
| 1788201218 | 37.78° C | 30% | 1013.2 hPa | 0 mm | - | - | - |
| 1788200917 | 38.33° C | 29% | 1013.5 hPa | 0 mm | - | - | - |
| 1788200613 | 38.33° C | 31% | 1013.3 hPa | 0 mm | - | - | - |
| 1788200308 | 38.33° C | 30% | 1013.3 hPa | 0 mm | - | - | - |
| 1788200003 | 37.78° C | 31% | 1013.6 hPa | 0 mm | - | - | - |
| 1788199698 | 37.78° C | 31% | 1013.3 hPa | 0 mm | - | - | - |
| 1788199393 | 38.33° C | 32% | 1013.5 hPa | 0 mm | - | - | - |
| 1788199092 | 38.33° C | 31% | 1013.7 hPa | 0 mm | - | - | - |
| 1788198789 | 38.33° C | 32% | 1013.8 hPa | 0 mm | - | - | - |
| 1788198484 | 37.78° C | 31% | 1014 hPa | 0 mm | - | - | - |
| 1788198180 | 37.78° C | 31% | 1014.1 hPa | 0 mm | - | - | - |
| 1788197879 | 37.22° C | 31% | 1014.2 hPa | 0 mm | - | - | - |
| 1788197573 | 37.22° C | 31% | 1014.2 hPa | 0 mm | - | - | - |
* Rain latest hour (hover to see other rain measurements)
** Current wind speed in m/s (hover to see current wind gust speed)